Location: Northam
(31.6525°S, 116.6655°E)
Time: 14:55:04
(UTC+08:00)

Envisat - Pass Details

Date: 16 May 2021
Orbit: 764 x 766 km, 98.1° (Epoch: 18 June)

Event Time Altitude Azimuth Distance (km) Brightness Sun altitude
Rises 04:08:18 0° 41° (NE) 3,220 6.8 -35.3°
Reaches altitude 10° 04:10:52 10° 53° (NE) 2,303 6.0 -34.8°
Maximum altitude 04:15:07 28° 110° (ESE) 1,435 4.8 -33.9°
Enters shadow 04:17:53 17° 154° (SSE) 1,862 5.2 -33.3°
